{"data":{"norad_id":62603,"epoch":"2026-09-21T16:25:25.331808Z","epoch_age_seconds":69036,"freshness":"FRESH","line1":"1 62603U 25008S   26264.68432097  .00001411  00000+0  60796-4 0  9999","line2":"2 62603  43.0007 251.5305 0001108 270.8857  89.1868 15.27577791 95534","mean_motion":15.27577791,"eccentricity":0.0001108,"inclination_deg":43.0007,"raan_deg":251.5305,"arg_perigee_deg":270.8857,"mean_anomaly_deg":89.1868,"bstar":6.0796e-5,"rev_number":9553,"period_min":94.266885030931,"perigee_km":482.29549043597,"apogee_km":483.81593074064,"semimajor_km":6861.1927105883,"source":"CELESTRAK","updated_at":"2026-09-22T09:00:49.633511Z"}}